Location: Newark
(35.8833°N, 14.5000°E)
Time: 11:49:16
(UTC+00:00)

UNISAT 6 - Pass Details

Date: 22 May 2019
Orbit: 606 x 690 km, 97.8° (Epoch: 16 June)

Event Time Altitude Azimuth Distance (km) Brightness Sun altitude
Rises 21:12:23 0° 350° (N) 2,927 ? -28.3°
Reaches altitude 10° 21:15:34 10° 325° (NW) 1,997 ? -28.6°
Maximum altitude 21:17:45 14° 294° (WNW) 1,745 ? -28.8°
Drops below altitude 10° 21:19:54 10° 264° (W) 1,972 ? -29.0°
Enters shadow 21:20:37 - 256° (WSW) 2,136 ? -29.1°
